Weather History for KPRB - January, 2015

Change the Weather History Date:

Sunday, January 18, 2015

  Actual Average Record
Temperature  
Mean Temperature 55 °F 47 °F  
Max Temperature 70 °F 60 °F 81 °F (1994)
Min Temperature 40 °F 35 °F 18 °F (2012)
Degree Days  
Heating Degree Days 10 18  
Month to date heating degree days 266 329  
Since 1 July heating degree days 934 1453  
Cooling Degree Days 0 0  
Month to date cooling degree days 0 0  
Year to date cooling degree days 0 0  
Growing Degree Days 4 (Base 50)    
Moisture  
Dew Point 45 °F    
Average Humidity 73    
Maximum Humidity 92    
Minimum Humidity 53    
Precipitation  
Precipitation 0.00 in 0.08 in 2.15 in (1973)
Month to date precipitation 0.08 1.61  
Year to date precipitation 0.08 1.61  
Since 1 July precipitation 5.80 5.60  
Sea Level Pressure  
Sea Level Pressure 30.25 in    
Wind  
Wind Speed 3 mph (East)    
Max Wind Speed 12 mph    
Max Gust Speed 13 mph    
Visibility 10 miles    
Events      
T = Trace of Precipitation, MM = Missing Value Source: NWS Daily Summary

Daily Weather History Graph

Daily Weather History Graph

Search for Another Location

Airport or City:

Trip Planner

Search our weather history database for the weather conditions in past years. The results will help you decide how hot, cold, wet, or windy it might be!

Date:

Astronomy

Jan. 18, 2015 Rise Set
Actual Time 7:10 AM PST 5:15 PM PST
Civil Twilight 6:43 AM PST 5:43 PM PST
Nautical Twilight 6:11 AM PST 6:14 PM PST
Astronomical Twilight 5:41 AM PST 6:44 PM PST
Moon 5:11 AM PST (1/18) 3:44 PM PST (1/18)
Length of Visible Light 11h 00m
Length of Day
10h 04m
Waning Crescent, 4% of the Moon is Illuminated
Jan 18
Waning Crescent
Jan 20
New
Jan 26
First Quarter
Feb 3
Full
Feb 11
Last Quarter

Hourly Weather History & Observations

Time (PST) Temp. Windchill Dew Point Humidity Pressure Visibility Wind Dir Wind Speed Gust Speed Precip Events Conditions
12:53 AM 48.0 °F - 44.1 °F 86% 30.24 in 10.0 mi East 5.8 mph - N/A   Clear
1:53 AM 48.0 °F - 43.0 °F 83% 30.24 in 10.0 mi Calm Calm - N/A   Clear
2:53 AM 45.0 °F 43.5 °F 42.1 °F 90% 30.25 in 10.0 mi SSE 3.5 mph - N/A   Clear
3:53 AM 43.0 °F 40.3 °F 39.9 °F 89% 30.25 in 9.0 mi East 4.6 mph - N/A   Clear
4:53 AM 44.1 °F 41.5 °F 41.0 °F 89% 30.24 in 10.0 mi SE 4.6 mph - N/A   Clear
5:53 AM 42.1 °F - 39.0 °F 89% 30.26 in 10.0 mi Calm Calm - N/A   Clear
6:53 AM 39.9 °F 35.8 °F 37.9 °F 93% 30.27 in 7.0 mi East 5.8 mph - N/A   Clear
7:53 AM 42.1 °F - 39.0 °F 89% 30.28 in 8.0 mi Calm Calm - N/A   Clear
8:53 AM 46.9 °F - 42.1 °F 83% 30.29 in 10.0 mi Calm Calm - N/A   Clear
9:53 AM 53.1 °F - 45.0 °F 74% 30.30 in 10.0 mi Calm Calm - N/A   Clear
10:53 AM 55.9 °F - 46.0 °F 69% 30.30 in 10.0 mi Calm Calm - N/A   Clear
11:53 AM 61.0 °F - 48.9 °F 64% 30.27 in 10.0 mi NNW 4.6 mph - N/A   Clear
12:53 PM 64.0 °F - 50.0 °F 60% 30.24 in 10.0 mi NW 4.6 mph - N/A   Clear
1:53 PM 66.0 °F - 51.1 °F 59% 30.22 in 10.0 mi Calm Calm - N/A   Clear
2:53 PM 68.0 °F - 51.1 °F 55% 30.20 in 10.0 mi Calm Calm - N/A   Clear
3:53 PM 70.0 °F - 52.0 °F 53% 30.19 in 10.0 mi Calm Calm - N/A   Clear
4:53 PM 64.9 °F - 51.1 °F 61% 30.20 in 10.0 mi East 9.2 mph - N/A   Clear
5:53 PM 61.0 °F - 48.9 °F 64% 30.21 in 10.0 mi ESE 6.9 mph - N/A   Clear
6:53 PM 55.9 °F - 46.9 °F 72% 30.24 in 10.0 mi Calm Calm - N/A   Clear
7:53 PM 55.9 °F - 46.0 °F 69% 30.25 in 10.0 mi Variable 3.5 mph - N/A   Clear
8:53 PM 55.0 °F - 46.0 °F 72% 30.24 in 10.0 mi ESE 10.4 mph - N/A   Clear
9:53 PM 52.0 °F - 45.0 °F 77% 30.25 in 10.0 mi Variable 3.5 mph - N/A   Clear
10:53 PM 50.0 °F - 45.0 °F 83% 30.27 in 10.0 mi Calm Calm - N/A   Clear
11:53 PM 48.9 °F - 43.0 °F 80% 30.27 in 10.0 mi East 3.5 mph - N/A   Clear